Location: Bli��� Lhota
(48.7570°N, 14.0120°E)
Time: 04:55:23
(UTC+00:00)

Landsat 7 - Pass Details

Date: 18 September 2020
Orbit: 701 x 703 km, 98.1° (Epoch: 27 October)

Event Time Altitude Azimuth Distance (km) Brightness Sun altitude
Exits shadow 19:25:46 41° 64° (ENE) 1,023 4.4 -22.2°
Drops below altitude 10° 19:30:08 10° 359° (N) 2,183 6.7 -22.8°
Sets 19:32:30 0° 352° (N) 3,106 7.7 -23.1°
